Regional Weather Roundup
Issued by NWS

Home | Current Version | Previous Version | Graphics & Text | Print | Product List | Glossary On
Versions: 1 2 3 4 5 6 7 8 9 10 11 12 13 14 15 16 17 18 19 20 21 22 23 24 25 26 27 28 29 30 31 32 33 34 35 36 37 38 39 40 41 42 43 44 45 46 47 48 49 50
000
ASUS43 KLSX 041710
RWRMO

WEATHER SUMMARY FOR MISSOURI
NATIONAL WEATHER SERVICE SPRINGFIELD MO
1200 PM CDT FRI SEP 04 2015

NOTE: "FAIR" INDICATES FEW OR NO CLOUDS BELOW 12,000 FEET WITH NO
       SIGNIFICANT WEATHER AND/OR OBSTRUCTIONS TO VISIBILITY.
       CURRENT SKY AND/OR WEATHER CONDITIONS ARE NOT AVAILABLE FOR
       CHILLICOTHE AND FARMINGTON.

MOZ001>031-035>038-043-044-053-054-041800-
...NORTHERN AND WESTERN MISSOURI...

CITY           SKY/WX    TMP DP  RH WIND       PRES   REMARKS
KANSAS CTY INT MOSUNNY   88  68  51 SW12      30.00S HX  91
KANSAS C DTWN  SUNNY     90  68  48 S10       29.98S HX  94
LEE`S SUMMIT   MOSUNNY   86  69  56 SW9       30.01F HX  90
ST JOSEPH      SUNNY     87  70  56 S12       29.97F HX  92
CHILLICOTHE      N/A     89  71  55 S7        30.00F HX  95
KIRKSVILLE     SUNNY     88  68  51 SW9       30.03F HX  91

$$
MOZ066>068-077>081-088>096-101>105-041800-
...SOUTHWEST MISSOURI...

CITY           SKY/WX    TMP DP  RH WIND       PRES   REMARKS
SPRINGFIELD    MOSUNNY   86  69  56 S10       30.06S HX  90
JOPLIN         MOSUNNY   87  69  54 SW12      30.04S HX  91

$$
MOZ032>034-039>042-045>050-055>058-069>072-041800-
...CENTRAL MISSOURI...

CITY           SKY/WX    TMP DP  RH WIND       PRES   REMARKS
COLUMBIA       MOSUNNY   87  71  58 VRB5      30.04F HX  93
JEFFERSON CITY MOSUNNY   87  68  52 VRB6      30.02F HX  90
ROLLA          MOSUNNY   88  66  48 VRB5      30.05F HX  90
SEDALIA        FAIR      91  67  44 SW14      30.03F HX  94
WHITEMAN AFB   MOSUNNY   90  67  46 SW13      30.00F HX  93
WARRENSBURG    MOSUNNY   86  64  48 S8        30.01F
OSAGE BEACH    MOSUNNY   88  68  51 SW5       30.05F HX  91

$$
MOZ051-052-059>065-041800-
...EAST CENTRAL MISSOURI...

CITY           SKY/WX    TMP DP  RH WIND       PRES   REMARKS
ST LOUIS INTL  PTSUNNY   91  68  46 W6        30.04F HX  95
SPIRIT OF STL  MOSUNNY   89  72  56 SW7       30.02F HX  96
ST CHARLES     SUNNY     90  70  51 W8        30.02F HX  95

$$
MOZ072>076-082>087-097>100-106>115-041800-
...SOUTH CENTRAL AND SOUTHEAST MISSOURI...

CITY           SKY/WX    TMP DP  RH WIND       PRES   REMARKS
CAPE GIRARDEAU MOSUNNY   90  71  53 NE3       30.04S HX  96
FARMINGTON     MOSUNNY   88  72  58 SW6       30.09F HX  94
POPLAR BLUFF   MOSUNNY   88  72  58 VRB6      30.03F HX  94
WEST PLAINS    PTSUNNY   85  67  54 S5        30.09F

$$



USA.gov is the U.S. government's official web portal to all federal, state and local government web resources and services.